THORAD DELTA 1 DEB, 8405

Orbit data source: Space-Track

THORAD DELTA 1 DEB, 8405 is space debris in LEO originally from a launch on Fri, 15 Nov 1974 UTC launched from the Air Force Western Test Range (AFWTR). Debris objects in space refer to the collection of defunct objects orbiting the Earth. Examples of debris include non-operational satellites, rocket bodies, and fragments generated from explosions, collisions, or faulty payload assembly.

Loading next visibility...
Identifier
8405, 1974-089CH
Orbit
LEO
Country
Flag of USUS
Related business
Manufacturer
Unknown
Mission
Spacecraft
Bus & Motor
Unknown
Mass
Unknown
Launch date (UTC)
1974-11-15 (51 years ago)
Launch vehicle
Unknown
Launch site
Air Force Western Test Range (AFWTR)
Object type
Payload
Rocket body
Debris
Shape & HBR
Unknown shape, 0.1 m
Radar Cross Section
Small (<0.1 m²)

Expand to show TLE details & history
Last TLE update: 15 hours ago

TLE from 15 hours ago
0 THORAD DELTA 1 DEB
1  8405U 74089CH  26035.24786971  .00000619  00000-0  10715-1 0  9996
2  8405 102.7305 315.3557 0699947 356.8207   2.8477 11.30581170115834
Epoch: 2026-02-04T05:56Z
TLE epoch observation values (Epoch: 2026-02-04T05:56:55.942Z)
Latitude
-0.00002°
Longitude
91.70543°
Altitude
1,423.656 km
Speed
7.395 km/s
True Right ascension
21h 01m 25s
True Declination
0° 00' 00"
Sunlit
Object was in daylight at epoch
Visualization orbit readout
Latitude
Unknown
Longitude
Unknown
Altitude
Unknown
Speed
Unknown
Apparent Right ascension
Unknown
Apparent Declination
Unknown
Sunlit
N/A
Visualization observer readout
Local Sidereal Time
23:05:43
Azimuth
Unknown
Elevation
Unknown
Doppler factor
Unknown
Orbital elements
Apogee altitude
2,591.996 km
Perigee altitude
1,418.416 km
Semi-major axis
8,383.343 km
Eccentricity
0.06999
Inclination
102.7305°
RAAN
315.3557°
Arg. of periapsis
356.8207°
True anomaly
3.28417°
Mean anomaly
2.8477°
Eccentric anomaly
3.06192°
Mean motion
2.8276 °/min
Orbital period
127.32 mins
BSTAR
0.010715
Loading maneuver chart data...
Computing Atmospheric mass density...

Documentation

Showing up to 5 results
|